Regional Weather Roundup
Issued by NWS

Home | Current Version | Previous Version | Graphics & Text | Print | Product List | Glossary On
Versions: 1 2 3 4 5 6 7 8 9 10 11 12 13 14 15 16 17 18 19 20 21 22 23 24 25 26 27 28
000
ASUS45 KCYS 211210
RWRWY

WYOMING REGIONAL WEATHER ROUNDUP
NATIONAL WEATHER SERVICE CHEYENNE WY
600 AM MDT SAT APR 21 2018

NOTE:  "FAIR" INDICATES FEW OR NO CLOUDS BELOW 12,000 FEET
WITH NO SIGNIFICANT WEATHER AND/OR OBSTRUCTIONS TO VISIBILITY.

WYZ001-211300-
YELLOWSTONE NATIONAL PARK

CITY           SKY/WX    TMP DP  RH WIND       PRES   REMARKS
LK YELLOWSTONE   N/A     20  17  88 CALM      30.23R
6HR MIN TEMP:  19; 6HR MAX TEMP:  27;

W YELLOWSTONE  NOT AVBL

$$
WYZ002>013-054>058-071-098>099-211300-
NORTHERN WYOMING

CITY           SKY/WX    TMP DP  RH WIND       PRES   REMARKS
JACKSON        FAIR      28  23  81 NE5       30.20R WCI  23
CODY           FAIR      42  30  62 S5        30.11S
GREYBULL       FAIR      37  34  89 SE3       30.10R
6HR MIN TEMP:  37; 6HR MAX TEMP:  47;

WORLAND        FAIR      34  32  92 S7        30.09S WCI  28
6HR MIN TEMP:  34; 6HR MAX TEMP:  42;

SHERIDAN       FAIR      31  29  92 CALM      30.11R
6HR MIN TEMP:  30; 6HR MAX TEMP:  40;

BUFFALO        FAIR      32  30  92 CALM      30.12S
6HR MIN TEMP:  31; 6HR MAX TEMP:  38;

GILLETTE       CLOUDY    38  34  85 S8        30.15R WCI  32
6HR MIN TEMP:  38; 6HR MAX TEMP:  39;

HULETT         CLOUDY    37  32  81 S13G18    30.16F WCI  29
NEWCASTLE      CLOUDY    36  36 100 SE7       30.20S WCI  30

$$
WYZ014>020-022>026-101>103-211300-
CENTRAL WYOMING

CITY           SKY/WX    TMP DP  RH WIND       PRES   REMARKS
BIG PINEY      FAIR      22  20  92 NE7       30.19S WCI  13
6HR MIN TEMP:  19; 6HR MAX TEMP:  32;

PINEDALE       FAIR      21  19  93 NW6       30.21S WCI  14
DUBOIS         FAIR      28  23  80 W13       30.16S WCI  18
LANDER         FAIR      30  27  88 SW5       30.14S WCI  25
6HR MIN TEMP:  30; 6HR MAX TEMP:  40;

RIVERTON       FAIR      29  28  96 NW5       30.15S WCI  24
6HR MIN TEMP:  28; 6HR MAX TEMP:  40;

CASPER         FOG       35  35 100 W5        30.15S VSB 1   WCI  31
6HR MIN TEMP:  35; 6HR MAX TEMP:  36;

DOUGLAS        CLOUDY    34  34 100 SE10      30.16R WCI  26
6HR MIN TEMP:  34; 6HR MAX TEMP:  37;


$$
WYZ021-027>030-104>119-211300-
SOUTHERN WYOMING

CITY           SKY/WX    TMP DP  RH WIND       PRES   REMARKS
EVANSTON       FAIR      37  25  61 CALM      30.20R
6HR MIN TEMP:  35; 6HR MAX TEMP:  43;

KEMMERER       FAIR      30  28  93 NW8       30.19R WCI  23
FORT BRIDGER   FAIR      33  30  88 W12       30.20F WCI  25
ROCK SPRINGS   FAIR      34  30  85 SE5       30.18S WCI  30
6HR MIN TEMP:  32; 6HR MAX TEMP:  37;

DIXON          PTSUNNY   35  30  81 N14       30.16S WCI  26
RAWLINS          N/A    N/A N/A N/A MISG      30.15S
SARATOGA       CLOUDY    32  32 100 NW9       30.14R WCI  24
LARAMIE        FOG       24  24 100 SW3       30.09F VSB 1/2
6HR MIN TEMP:  24; 6HR MAX TEMP:  30; 6HR PCP:  0.04;

CHEYENNE       LGT SNOW  30  30 100 CALM      30.13S FOG
6HR MIN TEMP:  30; 6HR MAX TEMP:  32; 6HR PCP:  0.04;

TORRINGTON     CLOUDY    34  34 100 SE6       30.18S WCI  29
6HR MIN TEMP:  33; 6HR MAX TEMP:  36; 6HR PCP:  0.03;

PINE BLUFFS    CLOUDY    32  32 100 NE5       30.16S WCI  27

$$




USA.gov is the U.S. government's official web portal to all federal, state and local government web resources and services.